Regional Weather Roundup
Issued by NWS State College, PA

Home | Current Version | Previous Version | Graphics & Text | Print | Product List | Glossary Off
Versions: 1 2 3 4 5 6 7 8 9 10 11 12 13 14 15 16 17 18 19 20 21 22 23 24 25 26 27 28 29 30 31 32 33 34 35 36 37 38 39 40 41 42 43 44 45 46 47 48 49 50

000
ASUS41 KCTP 032203
RWRCTP

REGIONAL WEATHER ROUNDUP
NATIONAL WEATHER SERVICE STATE COLLEGE PA
600 PM EDT SUN MAY 03 2015

Note: "fair" indicates few or no clouds below 12,000 feet with no
significant weather and/or obstructions to visibility.

* = STATION THAT DOES NOT REPORT PRECIPITATION /E.G. RAIN...SNOW...ETC/
    THUNDER OR FOG.

PAZ002>004-007>009-013>016-020>023-029>032-032300-
WESTERN PENNSYLVANIA

CITY           SKY/WX    TMP DP  RH WIND       PRES   REMARKS
ERIE           SUNNY     73  36  25 W6        30.07S
MEADVILLE      CLOUDY    75  37  25 CALM      30.07S
FRANKLIN*      SUNNY     73  39  29 W5        30.10S
NEW CASTLE     FAIR      78  43  28 VRB7      30.08F
BEAVER COUNTY  NOT AVBL
BUTLER*        MOSUNNY   75  41  29 W6        30.11S
PITTSBURGH INT PTSUNNY   75  40  28 CALM      30.09S
PITTSBURGH     CLOUDY    75  37  25 S6        30.09S
INDIANA*       MOSUNNY   72  43  35 W9        30.13S
LATROBE        MOSUNNY   73  45  35 W12       30.12S
WASHINGTON CO* MOSUNNY   73  43  33 W7        30.12S
$$

PAZ004>006-010>012-017>019-024>028-033>037-041-042-045-046-049>053-032300-
CENTRAL PENNSYLVANIA

CITY           SKY/WX    TMP DP  RH WIND       PRES   REMARKS
BRADFORD       PTSUNNY   73  34  23 SW8       30.09F
DUBOIS         MOSUNNY   74  39  28 SW6       30.09S
CLEARFIELD     PTSUNNY   75  37  25 VRB7      30.09S
JOHNSTOWN      SUNNY     68  39  34 W7        30.13R
ALTOONA        MOSUNNY   73  38  27 CALM      30.11S
STATE COLLEGE  PTSUNNY   75  39  27 S5        30.08S
WILLIAMSPORT   MOSUNNY   79  35  20 SW5       30.04R
SELINSGROVE    CLOUDY    74  48  39 SE6       30.06S
FT INDIANTOWN  MOSUNNY   79  37  21 VRB3      30.06S
CAPITAL CITY   MOSUNNY   78  41  26 SW6       30.06S
HARRISBURG     PTSUNNY   75  48  38 CALM      30.06S
YORK           MOSUNNY   77  42  28 CALM      30.08R
$$

PAZ038>040-043-044-047-048-054-055-060>062-067>071-032300-
EASTERN PENNSYLVANIA

CITY           SKY/WX    TMP DP  RH WIND       PRES   REMARKS
SCRANTON       SUNNY     77  32  19 VRB5      30.06R
MOUNT POCONO   MOSUNNY   72  30  21 W9        30.09S
ALLENTOWN      SUNNY     79  33  19 W7        30.05S
QUAKERTOWN*    PTCLDY    77  37  24 SW3       30.07S
READING        MOSUNNY   79  37  22 S6        30.05S
LANCASTER      SUNNY     76  39  26 W9        30.07R
COATESVILLE    CLEAR     75  39  27 W6        30.09S
POTTSTOWN      SUNNY     78  31  17 W8        30.08R
BLUE BELL      SUNNY     79  36  21 W5        30.07R
DOYLESTOWN     MOSUNNY   75  34  22 W6        30.06S
WILLOW GROVE   NOT AVBL
NORTH PHILA    MOSUNNY   80  35  19 W7        30.08R
PHILADELPHIA   MOSUNNY   81  37  20 CALM      30.07S
$$



USA.gov is the U.S. government's official web portal to all federal, state and local government web resources and services.